Tracking 28052 objects as of 21-Sep-2023
HD Live streaming from Space Station
objects crossing your sky now

INSAT 2A

Track INSAT 2A now!
INSAT 2A is classified as:


NORAD ID: 22027
Int'l Code: 1992-041A
Perigee: 35,792.0 km
Apogee: 35,852.7 km
Inclination: 14.7 °
Period: 1,437.6 minutes
Semi major axis: 42193 km
RCS: 1.9952 m2 (large)
Launch date: July 9, 1992
Source: India (IND)
Launch site: FRENCH GUIANA (FRGUI)
Your satellite tracking list
Your tracking list is empty




NASA's NSSDC Master Catalog

Two Line Element Set (TLE):
1 22027U 92041A   23263.70986848 -.00000358  00000-0  00000-0 0  9992
2 22027  14.7065 359.4856 0007195 231.0082 137.9448  1.00169941114032
Source of the keplerian elements: AFSPC